Eugene, OR

3:28 PM PST on November 21, 2019 (GMT -0800)
Mahlon Sweet

Weather History for KEUG - September, 2019

Change the Weather History Date:

Monday, September 2, 2019

  Actual Average Record
Temperature  
Mean Temperature 71 °F 65 °F  
Max Temperature 86 °F 80 °F 103 °F (1988)
Min Temperature 55 °F 50 °F 38 °F (1999)
Degree Days  
Heating Degree Days 0 2  
Month to date heating degree days 0 4  
Since 1 July heating degree days 12 71  
Cooling Degree Days 6 2  
Month to date cooling degree days 14 4  
Year to date cooling degree days 322 212  
Growing Degree Days 20 (Base 50)    
Moisture  
Dew Point 54 °F    
Average Humidity 60    
Maximum Humidity 86    
Minimum Humidity 34    
Precipitation  
Precipitation 0.00 in 0.03 in 0.72 in (1979)
Month to date precipitation 0.00 0.06  
Year to date precipitation 23.21 26.07  
Sea Level Pressure  
Sea Level Pressure 30.03 in    
Wind  
Wind Speed 3 mph (North)    
Max Wind Speed 10 mph    
Max Gust Speed 14 mph    
Visibility 10 miles    
Events      
T = Trace of Precipitation, MM = Missing Value Source: NWS Daily Summary

Daily Weather History Graph

Daily Weather History Graph

Search for Another Location

Airport or City:

Astronomy

Sep. 02, 2019 Rise Set
Actual Time 6:37 AM PDT 7:47 PM PDT
Civil Twilight 6:07 AM PDT 8:16 PM PDT
Nautical Twilight 5:31 AM PDT 8:52 PM PDT
Astronomical Twilight 4:53 AM PDT 9:30 PM PDT
Moon 10:33 AM PDT (9/2) 10:03 PM PDT (9/2)
Length of Visible Light 14h 09m
Length of Day
13h 10m
Waxing Crescent, 16% of the Moon is Illuminated
Sep 2
Waxing Crescent
Sep 5
First Quarter
Sep 13
Full
Sep 21
Last Quarter
Sep 28
New

Hourly Weather History & Observations

Time (PDT) Temp. Heat Index Dew Point Humidity Pressure Visibility Wind Dir Wind Speed Gust Speed Precip Events Conditions
12:54 AM 63.0 °F - 53.1 °F 70% 30.03 in 10.0 mi Calm Calm - N/A   Clear
1:54 AM 60.1 °F - 53.1 °F 78% 30.04 in 10.0 mi Calm Calm - N/A   Clear
2:54 AM 57.9 °F - 52.0 °F 81% 30.04 in 10.0 mi Calm Calm - N/A   Clear
3:54 AM 55.9 °F - 50.0 °F 80% 30.04 in 10.0 mi Calm Calm - N/A   Overcast
4:54 AM 55.9 °F - 51.1 °F 84% 30.05 in 10.0 mi ENE 3.5 mph - N/A   Overcast
5:54 AM 59.0 °F - 54.0 °F 83% 30.06 in 10.0 mi Calm Calm - N/A   Mostly Cloudy
6:54 AM 55.9 °F - 50.0 °F 80% 30.07 in 10.0 mi NW 3.5 mph - N/A   Scattered Clouds
7:54 AM 57.9 °F - 53.1 °F 84% 30.08 in 10.0 mi Calm Calm - N/A   Scattered Clouds
8:54 AM 62.1 °F - 55.9 °F 80% 30.08 in 10.0 mi Calm Calm - N/A   Scattered Clouds
9:54 AM 66.0 °F - 55.9 °F 70% 30.08 in 10.0 mi Calm Calm - N/A   Scattered Clouds
11:54 AM 75.0 °F - 55.9 °F 51% 30.06 in 10.0 mi North 6.9 mph - N/A   Partly Cloudy
12:54 PM 79.0 °F - 55.9 °F 45% 30.04 in 10.0 mi North 8.1 mph - N/A   Partly Cloudy
1:54 PM 80.1 °F 79.9 °F 53.1 °F 39% 30.03 in 10.0 mi North 5.8 mph - N/A   Partly Cloudy
2:54 PM 84.0 °F 82.5 °F 53.1 °F 34% 30.00 in 10.0 mi NE 5.8 mph - N/A   Partly Cloudy
3:54 PM 84.0 °F 82.5 °F 53.1 °F 34% 29.98 in 10.0 mi Variable 3.5 mph - N/A   Partly Cloudy
4:54 PM 84.0 °F 82.5 °F 53.1 °F 34% 29.97 in 10.0 mi North 4.6 mph - N/A   Partly Cloudy
5:54 PM 82.9 °F 81.8 °F 53.1 °F 36% 29.96 in 10.0 mi Variable 4.6 mph - N/A   Partly Cloudy
6:54 PM 82.0 °F 81.3 °F 54.0 °F 38% 29.97 in 10.0 mi NNE 8.1 mph - N/A   Partly Cloudy
7:54 PM 75.0 °F - 55.9 °F 51% 29.99 in 10.0 mi West 8.1 mph - N/A   Clear
8:54 PM 72.0 °F - 55.9 °F 57% 30.00 in 10.0 mi Variable 3.5 mph - N/A   Clear
9:54 PM 66.0 °F - 54.0 °F 65% 30.01 in 10.0 mi Variable 3.5 mph - N/A   Clear
10:54 PM 64.0 °F - 54.0 °F 70% 30.01 in 10.0 mi Calm Calm - N/A   Clear
11:54 PM 64.9 °F - 55.0 °F 70% 30.01 in 10.0 mi Calm Calm - N/A   Clear